Jackson, WY

10:22 AM MST on December 12, 2019 (GMT -0700)
Jackson Hole

Weather History for KJAC - October, 2019

Change the Weather History Date:

Sunday, October 20, 2019

  Actual Average Record
Temperature  
Mean Temperature 30 °F -  
Max Temperature 35 °F 56 °F 71 °F (2003)
Min Temperature 25 °F 20 °F 9 °F (1984)
Degree Days  
Heating Degree Days 35    
Moisture  
Dew Point 25 °F    
Average Humidity 86    
Maximum Humidity 100    
Minimum Humidity 64    
Precipitation  
Precipitation 0.02 in - - ()
Sea Level Pressure  
Sea Level Pressure 29.94 in    
Wind  
Wind Speed 10 mph ()    
Max Wind Speed 17 mph    
Max Gust Speed 22 mph    
Visibility 5.9 miles    
Events Snow    
Averages and records for this station are not official NWS values.
T = Trace of Precipitation, MM = Missing Value Source: Averaged Metar Reports

Daily Weather History Graph

Daily Weather History Graph

Search for Another Location

Airport or City:

Astronomy

Oct. 20, 2019 Rise Set
Actual Time 7:43 AM MDT 6:31 PM MDT
Civil Twilight 7:14 AM MDT 7:00 PM MDT
Nautical Twilight 6:40 AM MDT 7:34 PM MDT
Astronomical Twilight 6:07 AM MDT 8:07 PM MDT
Moon 11:37 PM MDT (10/20) 2:21 PM MDT (10/20)
Length of Visible Light 11h 46m
Length of Day
10h 48m
Waning Gibbous, 58% of the Moon is Illuminated
Oct 20
Waning Gibbous
Oct 21
Last Quarter
Oct 27
New
Nov 4
First Quarter
Nov 12
Full

Hourly Weather History & Observations

Time (MDT) Temp. Windchill Dew Point Humidity Pressure Visibility Wind Dir Wind Speed Gust Speed Precip Events Conditions
12:11 AM 28.4 °F 18.5 °F 26.6 °F 93% 29.70 in 1.5 mi South 11.5 mph - N/A   Overcast
12:19 AM 28.4 °F 18.0 °F 26.6 °F 93% 29.70 in 2.0 mi South 12.7 mph - N/A   Overcast
12:56 AM 28.0 °F 17.5 °F 26.1 °F 92% 29.78 in 1.8 mi South 12.7 mph - N/A   Overcast
1:25 AM 28.4 °F 16.2 °F 26.6 °F 93% 29.71 in 1.2 mi South 17.3 mph - 0.01 in   Overcast
1:45 AM 28.4 °F 16.6 °F 26.6 °F 93% 29.73 in 0.8 mi South 16.1 mph - 0.01 in   Overcast
1:53 AM 28.4 °F 17.5 °F 26.6 °F 93% 29.73 in 1.0 mi South 13.8 mph - 0.01 in   Overcast
1:56 AM 28.0 °F 17.5 °F 26.1 °F 92% 29.81 in 1.2 mi SSE 12.7 mph - 0.01 in   Overcast
2:03 AM 26.6 °F 16.8 °F 26.6 °F 100% 29.73 in 3.0 mi SSE 10.4 mph - N/A   Overcast
2:11 AM 28.4 °F 16.2 °F 26.6 °F 93% 29.74 in 7.0 mi South 17.3 mph - N/A   Overcast
2:16 AM 28.4 °F 16.6 °F 26.6 °F 93% 29.74 in 9.0 mi South 16.1 mph - N/A   Overcast
2:56 AM 28.9 °F 19.2 °F 25.0 °F 85% 29.83 in 6.0 mi SW 11.5 mph - N/A   Overcast
3:27 AM 28.4 °F 19.7 °F 24.8 °F 86% 29.77 in 2.5 mi SSW 9.2 mph - N/A   Overcast
3:37 AM 28.4 °F 19.1 °F 24.8 °F 86% 29.77 in 1.5 mi SSW 10.4 mph - N/A   Overcast
3:53 AM 28.4 °F 20.4 °F 24.8 °F 86% 29.77 in 3.0 mi South 8.1 mph - N/A   Overcast
3:56 AM 28.0 °F 19.3 °F 25.0 °F 88% 29.85 in 5.0 mi South 9.2 mph - N/A   Overcast
4:43 AM 28.4 °F 19.7 °F 24.8 °F 86% 29.79 in 5.0 mi SW 9.2 mph - N/A   Overcast
4:56 AM 28.0 °F 20.0 °F 24.1 °F 85% 29.88 in 4.0 mi WSW 8.1 mph - N/A   Overcast
5:08 AM 28.4 °F 19.7 °F 24.8 °F 86% 29.80 in 3.0 mi SW 9.2 mph - N/A   Overcast
5:30 AM 28.4 °F 22.2 °F 24.8 °F 86% 29.81 in 4.0 mi SSW 5.8 mph - 0.01 in   Overcast
5:56 AM 28.0 °F 22.8 °F 25.0 °F 88% 29.91 in 6.0 mi SW 4.6 mph - 0.01 in   Overcast
6:56 AM 27.0 °F 19.5 °F 25.0 °F 92% 29.95 in 7.0 mi SSE 6.9 mph - N/A   Overcast
7:56 AM 27.0 °F 19.5 °F 26.1 °F 96% 29.98 in 7.0 mi SSE 6.9 mph - N/A   Overcast
8:35 AM 28.4 °F 22.2 °F 26.6 °F 93% 29.91 in 6.0 mi ESE 5.8 mph - N/A   Overcast
8:56 AM 28.0 °F 21.7 °F 26.1 °F 92% 30.02 in 7.0 mi South 5.8 mph - N/A   Overcast
9:36 AM 28.4 °F 20.4 °F 26.6 °F 93% 29.94 in 9.0 mi South 8.1 mph - N/A   Overcast
9:56 AM 30.9 °F 25.2 °F 28.0 °F 89% 30.04 in 9.0 mi Variable 5.8 mph - N/A   Overcast
10:56 AM 32.0 °F 23.6 °F 24.1 °F 73% 30.06 in 10.0 mi WNW 10.4 mph 19.6 mph N/A   Overcast
11:56 AM 33.1 °F 24.4 °F 24.1 °F 70% 30.08 in 9.0 mi West 11.5 mph 17.3 mph N/A   Overcast
12:56 PM 32.0 °F 22.5 °F 23.0 °F 69% 30.12 in 9.0 mi West 12.7 mph - N/A   Overcast
1:56 PM 33.1 °F 26.9 °F 25.0 °F 72% 30.12 in 9.0 mi Variable 6.9 mph - N/A   Overcast
2:56 PM 33.1 °F 25.5 °F 25.0 °F 72% 30.13 in 5.0 mi SW 9.2 mph - N/A   Overcast
3:56 PM 34.0 °F - 23.0 °F 64% 30.13 in 10.0 mi Calm Calm - N/A   Overcast
4:56 PM 33.1 °F 25.5 °F 23.0 °F 66% 30.13 in 10.0 mi SSW 9.2 mph - N/A   Overcast
5:56 PM 30.9 °F 19.8 °F 26.1 °F 82% 30.14 in 10.0 mi South 16.1 mph 21.9 mph N/A   Overcast
6:11 PM 30.2 °F 19.8 °F 26.6 °F 86% 30.04 in 1.8 mi SW 13.8 mph 20.7 mph 0.00 in Snow Light Snow
6:20 PM 28.4 °F 22.2 °F 26.6 °F 93% 30.04 in 1.5 mi SSW 5.8 mph - 0.00 in Snow Light Snow
6:29 PM 28.4 °F 21.2 °F 26.6 °F 93% 30.04 in 2.0 mi South 6.9 mph - 0.00 in Snow Light Snow
6:32 PM 28.4 °F 21.2 °F 26.6 °F 93% 30.04 in 6.0 mi SSW 6.9 mph - 0.00 in Snow Light Snow
6:46 PM 28.4 °F 23.3 °F 26.6 °F 93% 30.04 in 9.0 mi SSW 4.6 mph - 0.00 in Snow Light Snow
6:56 PM 28.9 °F 21.1 °F 27.0 °F 92% 30.16 in 9.0 mi SSW 8.1 mph - 0.00 in   Overcast
7:56 PM 30.0 °F 20.0 °F 25.0 °F 82% 30.16 in 10.0 mi SSW 12.7 mph - 0.00 in   Overcast
8:56 PM 30.0 °F 19.1 °F 23.0 °F 75% 30.15 in 9.0 mi SSW 15.0 mph - 0.00 in Snow Light Snow
9:56 PM 28.9 °F 18.6 °F 21.9 °F 75% 30.13 in 10.0 mi SSW 12.7 mph - 0.00 in   Mostly Cloudy
10:56 PM 26.1 °F 16.8 °F 19.9 °F 78% 30.14 in 10.0 mi SSW 9.2 mph - N/A   Clear
11:56 PM 25.0 °F 19.3 °F 19.9 °F 81% 30.12 in 10.0 mi South 4.6 mph - N/A   Overcast